Location: Casteau
(50.5142°N, 4.0161°E)
Time: 00:07:20
(UTC+00:00)

S-56A Canister/Altair - Pass Details

Date: 02 August 2021
Orbit: 632 x 2500 km, 38.9° (Epoch: 16 September)

Event Time Altitude Azimuth Distance (km) Brightness Sun altitude
Rises 18:40:32 0° 273° (W) 6,074 13.8 5.8°
Reaches altitude 10° 18:44:44 10° 267° (W) 5,141 13.2 5.2°
Maximum altitude 18:58:09 41° 206° (SSW) 3,169 10.7 3.2°
Drops below altitude 10° 19:09:55 10° 142° (SE) 4,510 10.9 1.5°
Sets 19:13:21 0° 135° (SE) 5,285 11.2 1.0°
